Time,TemperatureF,DewpointF,PressureIn,WindDirection,WindDirectionDegrees,WindSpeedMPH,WindSpeedGustMPH,Humidity,HourlyPrecipIn,Conditions,Clouds,dailyrainin,SoftwareType,DateUTC
2013-04-28 00:01:00,47.7,33.1,30.41,NNW,337,0.0,0.0,57,0.00,,,0.00,WUHU21623XXSP,2013-04-28 04:01:00,
2013-04-28 00:06:00,47.3,32.8,30.41,NNW,337,0.0,0.0,57,0.00,,,0.00,WUHU21623XXSP,2013-04-28 04:06:00,
2013-04-28 00:11:00,47.1,32.6,30.41,NNW,337,0.0,0.0,57,0.00,,,0.00,WUHU21623XXSP,2013-04-28 04:11:00,
2013-04-28 00:16:00,47.1,32.6,30.41,NNW,337,0.0,0.0,57,0.00,,,0.00,WUHU21623XXSP,2013-04-28 04:16:00,
2013-04-28 00:21:00,46.9,32.4,30.41,NNW,337,0.0,0.0,57,0.00,,,0.00,WUHU21623XXSP,2013-04-28 04:21:00,
2013-04-28 00:27:00,46.6,32.5,30.41,NNW,337,0.0,0.0,58,0.00,,,0.00,WUHU21623XXSP,2013-04-28 04:27:00,
2013-04-28 00:32:00,46.2,32.6,30.41,NNW,337,0.0,0.0,59,0.00,,,0.00,WUHU21623XXSP,2013-04-28 04:32:00,
2013-04-28 00:37:00,46.2,32.6,30.41,NNW,337,0.0,0.0,59,0.00,,,0.00,WUHU21623XXSP,2013-04-28 04:37:00,
2013-04-28 00:42:00,46.0,32.5,30.41,NNW,337,0.0,0.0,59,0.00,,,0.00,WUHU21623XXSP,2013-04-28 04:42:00,
2013-04-28 00:47:00,46.0,32.9,30.41,NNW,337,0.0,0.0,60,0.00,,,0.00,WUHU21623XXSP,2013-04-28 04:47:00,
2013-04-28 00:52:00,45.5,32.5,30.41,NNW,337,0.0,0.0,60,0.00,,,0.00,WUHU21623XXSP,2013-04-28 04:52:00,
2013-04-28 00:57:00,45.3,32.3,30.41,NNW,337,0.0,0.0,60,0.00,,,0.00,WUHU21623XXSP,2013-04-28 04:57:00,
2013-04-28 01:02:00,45.1,32.1,30.41,NNW,337,0.0,0.0,60,0.00,,,0.00,WUHU21623XXSP,2013-04-28 05:02:00,
2013-04-28 01:07:00,45.0,32.0,30.41,NNW,337,0.0,0.0,60,0.00,,,0.00,WUHU21623XXSP,2013-04-28 05:07:00,
2013-04-28 01:12:00,44.6,32.0,30.41,NNW,337,0.0,0.0,61,0.00,,,0.00,WUHU21623XXSP,2013-04-28 05:12:00,
2013-04-28 01:17:00,44.4,32.2,30.41,NNW,337,0.0,0.0,62,0.00,,,0.00,WUHU21623XXSP,2013-04-28 05:17:00,
2013-04-28 01:22:00,44.2,32.0,30.41,NNW,337,0.0,0.0,62,0.00,,,0.00,WUHU21623XXSP,2013-04-28 05:22:00,
2013-04-28 01:27:00,43.9,32.1,30.40,NNW,337,0.0,0.0,63,0.00,,,0.00,WUHU21623XXSP,2013-04-28 05:27:00,
2013-04-28 01:32:00,43.9,32.1,30.40,NNW,337,0.0,0.0,63,0.00,,,0.00,WUHU21623XXSP,2013-04-28 05:32:00,
2013-04-28 01:37:00,43.7,31.9,30.40,NNW,337,0.0,0.0,63,0.00,,,0.00,WUHU21623XXSP,2013-04-28 05:37:00,
2013-04-28 01:42:00,43.7,31.9,30.40,NNW,337,0.0,0.0,63,0.00,,,0.00,WUHU21623XXSP,2013-04-28 05:42:00,
2013-04-28 01:47:00,43.7,31.5,30.40,NNW,337,0.0,0.0,62,0.00,,,0.00,WUHU21623XXSP,2013-04-28 05:47:00,
2013-04-28 01:52:00,43.9,31.7,30.40,NNW,337,0.0,0.0,62,0.00,,,0.00,WUHU21623XXSP,2013-04-28 05:52:00,
2013-04-28 01:57:00,43.9,32.1,30.40,NNW,337,0.0,0.0,63,0.00,,,0.00,WUHU21623XXSP,2013-04-28 05:57:00,
2013-04-28 02:02:00,43.7,31.9,30.40,NNW,337,0.0,0.0,63,0.00,,,0.00,WUHU21623XXSP,2013-04-28 06:02:00,
2013-04-28 02:07:00,43.9,32.1,30.40,NNW,337,0.0,0.0,63,0.00,,,0.00,WUHU21623XXSP,2013-04-28 06:07:00,
2013-04-28 02:12:00,43.9,31.7,30.39,NNW,337,0.0,0.0,62,0.00,,,0.00,WUHU21623XXSP,2013-04-28 06:12:00,
2013-04-28 02:17:00,43.7,31.5,30.39,NNW,337,0.0,0.0,62,0.00,,,0.00,WUHU21623XXSP,2013-04-28 06:17:00,
2013-04-28 02:22:00,43.5,31.7,30.40,NNW,337,0.0,0.0,63,0.00,,,0.00,WUHU21623XXSP,2013-04-28 06:22:00,
2013-04-28 02:27:00,43.0,31.2,30.39,NNW,337,0.0,0.0,63,0.00,,,0.00,WUHU21623XXSP,2013-04-28 06:27:00,
2013-04-28 02:32:00,42.6,31.2,30.39,NNW,337,0.0,0.0,64,0.00,,,0.00,WUHU21623XXSP,2013-04-28 06:32:00,
2013-04-28 02:37:00,42.3,31.3,30.39,NNW,337,0.0,0.0,65,0.00,,,0.00,WUHU21623XXSP,2013-04-28 06:37:00,
2013-04-28 02:42:00,42.1,31.1,30.39,NNW,337,0.0,0.0,65,0.00,,,0.00,WUHU21623XXSP,2013-04-28 06:42:00,
2013-04-28 02:47:00,42.1,31.1,30.39,NNW,337,0.0,0.0,65,0.00,,,0.00,WUHU21623XXSP,2013-04-28 06:47:00,
2013-04-28 02:52:00,41.9,31.4,30.39,NNW,337,0.0,0.0,66,0.00,,,0.00,WUHU21623XXSP,2013-04-28 06:52:00,
2013-04-28 02:57:00,41.9,31.4,30.39,NNW,337,0.0,0.0,66,0.00,,,0.00,WUHU21623XXSP,2013-04-28 06:57:00,
2013-04-28 03:02:00,41.9,31.7,30.39,NNW,337,0.0,0.0,67,0.00,,,0.00,WUHU21623XXSP,2013-04-28 07:02:00,
2013-04-28 03:07:00,41.5,31.8,30.39,NNW,337,0.0,0.0,68,0.00,,,0.00,WUHU21623XXSP,2013-04-28 07:07:00,
2013-04-28 03:12:00,41.4,31.8,30.39,NNW,337,0.0,0.0,68,0.00,,,0.00,WUHU21623XXSP,2013-04-28 07:12:00,
2013-04-28 03:17:00,41.4,31.6,30.39,NNW,337,0.0,0.0,68,0.00,,,0.00,WUHU21623XXSP,2013-04-28 07:17:00,
2013-04-28 03:22:00,41.4,31.6,30.39,NNW,337,0.0,0.0,68,0.00,,,0.00,WUHU21623XXSP,2013-04-28 07:22:00,
2013-04-28 03:27:00,41.4,31.6,30.39,NNW,337,0.0,0.0,68,0.00,,,0.00,WUHU21623XXSP,2013-04-28 07:27:00,
2013-04-28 03:32:00,41.2,31.4,30.39,NNW,337,0.0,0.0,68,0.00,,,0.00,WUHU21623XXSP,2013-04-28 07:32:00,
2013-04-28 03:37:00,41.0,31.6,30.39,NNW,337,0.0,0.0,69,0.00,,,0.00,WUHU21623XXSP,2013-04-28 07:37:00,
2013-04-28 03:42:00,41.0,31.6,30.39,NNW,337,0.0,0.0,69,0.00,,,0.00,WUHU21623XXSP,2013-04-28 07:42:00,
2013-04-28 03:47:00,40.6,31.6,30.40,NNW,337,0.0,0.0,70,0.00,,,0.00,WUHU21623XXSP,2013-04-28 07:47:00,
2013-04-28 03:52:00,40.1,31.4,30.40,NNW,337,0.0,0.0,71,0.00,,,0.00,WUHU21623XXSP,2013-04-28 07:52:00,
2013-04-28 03:57:00,39.9,31.2,30.39,NNW,337,0.0,0.0,71,0.00,,,0.00,WUHU21623XXSP,2013-04-28 07:57:00,
2013-04-28 04:02:00,39.7,31.4,30.40,NNW,337,0.0,0.0,72,0.00,,,0.00,WUHU21623XXSP,2013-04-28 08:02:00,
2013-04-28 04:07:00,39.6,31.2,30.40,NNW,337,0.0,0.0,72,0.00,,,0.00,WUHU21623XXSP,2013-04-28 08:07:00,
2013-04-28 04:12:00,39.7,31.4,30.40,NNW,337,0.0,0.0,72,0.00,,,0.00,WUHU21623XXSP,2013-04-28 08:12:00,
2013-04-28 04:17:00,39.7,31.4,30.40,NNW,337,0.0,0.0,72,0.00,,,0.00,WUHU21623XXSP,2013-04-28 08:17:00,
2013-04-28 04:22:00,40.1,31.8,30.40,NNW,337,0.0,0.0,72,0.00,,,0.00,WUHU21623XXSP,2013-04-28 08:22:00,
2013-04-28 04:27:00,40.3,31.6,30.39,NNW,337,0.0,0.0,71,0.00,,,0.00,WUHU21623XXSP,2013-04-28 08:27:00,
2013-04-28 04:32:00,40.3,31.6,30.39,NNW,337,0.0,0.0,71,0.00,,,0.00,WUHU21623XXSP,2013-04-28 08:32:00,
2013-04-28 04:37:00,40.3,31.3,30.39,NNW,337,0.0,0.0,70,0.00,,,0.00,WUHU21623XXSP,2013-04-28 08:37:00,
2013-04-28 04:42:00,40.3,31.3,30.38,NNW,337,0.0,0.0,70,0.00,,,0.00,WUHU21623XXSP,2013-04-28 08:42:00,
2013-04-28 04:47:00,40.1,31.1,30.39,NNW,337,0.0,0.0,70,0.00,,,0.00,WUHU21623XXSP,2013-04-28 08:47:00,
2013-04-28 04:52:00,39.9,30.9,30.39,NNW,337,0.0,0.0,70,0.00,,,0.00,WUHU21623XXSP,2013-04-28 08:52:00,
2013-04-28 04:57:00,39.4,31.2,30.39,NNW,337,0.0,0.0,72,0.00,,,0.00,WUHU21623XXSP,2013-04-28 08:57:00,
2013-04-28 05:02:00,39.4,31.0,30.39,NNW,337,0.0,0.0,72,0.00,,,0.00,WUHU21623XXSP,2013-04-28 09:02:00,
2013-04-28 05:07:00,39.0,30.7,30.38,NNW,337,0.0,0.0,72,0.00,,,0.00,WUHU21623XXSP,2013-04-28 09:07:00,
2013-04-28 05:12:00,39.4,31.4,30.39,NNW,337,0.0,0.0,73,0.00,,,0.00,WUHU21623XXSP,2013-04-28 09:12:00,
2013-04-28 05:17:00,39.4,31.0,30.39,NNW,337,0.0,0.0,72,0.00,,,0.00,WUHU21623XXSP,2013-04-28 09:17:00,
2013-04-28 05:22:00,39.0,30.7,30.39,NNW,337,0.0,0.0,72,0.00,,,0.00,WUHU21623XXSP,2013-04-28 09:22:00,
2013-04-28 05:27:00,39.0,30.7,30.39,NNW,337,0.0,0.0,72,0.00,,,0.00,WUHU21623XXSP,2013-04-28 09:27:00,
2013-04-28 05:32:00,39.4,30.7,30.40,NNW,337,0.0,0.0,71,0.00,,,0.00,WUHU21623XXSP,2013-04-28 09:32:00,
2013-04-28 05:37:00,39.6,30.9,30.39,NNW,337,0.0,0.0,71,0.00,,,0.00,WUHU21623XXSP,2013-04-28 09:37:00,
2013-04-28 05:42:00,39.7,31.1,30.39,NNW,337,0.0,0.0,71,0.00,,,0.00,WUHU21623XXSP,2013-04-28 09:42:00,
2013-04-28 05:47:00,39.9,31.2,30.39,NNW,337,0.0,0.0,71,0.00,,,0.00,WUHU21623XXSP,2013-04-28 09:47:00,
2013-04-28 05:52:00,39.9,31.2,30.39,NNW,337,0.0,0.0,71,0.00,,,0.00,WUHU21623XXSP,2013-04-28 09:52:00,
2013-04-28 05:57:00,39.9,30.9,30.39,NNW,337,0.0,0.0,70,0.00,,,0.00,WUHU21623XXSP,2013-04-28 09:57:00,
2013-04-28 06:02:00,40.1,31.1,30.39,NNW,337,0.0,0.0,70,0.00,,,0.00,WUHU21623XXSP,2013-04-28 10:02:00,
2013-04-28 06:07:00,39.9,30.9,30.39,NNW,337,0.0,0.0,70,0.00,,,0.00,WUHU21623XXSP,2013-04-28 10:07:00,
2013-04-28 06:12:00,39.4,30.7,30.39,NNW,337,0.0,0.0,71,0.00,,,0.00,WUHU21623XXSP,2013-04-28 10:12:00,
2013-04-28 06:17:00,38.8,30.5,30.39,NNW,337,0.0,0.0,72,0.00,,,0.00,WUHU21623XXSP,2013-04-28 10:17:00,
2013-04-28 06:22:00,38.5,30.5,30.39,NNW,337,0.0,0.0,73,0.00,,,0.00,WUHU21623XXSP,2013-04-28 10:22:00,
2013-04-28 06:27:00,38.7,30.7,30.39,NNW,337,0.0,0.0,73,0.00,,,0.00,WUHU21623XXSP,2013-04-28 10:27:00,
2013-04-28 06:32:00,39.0,30.7,30.39,NNW,337,0.0,0.0,72,0.00,,,0.00,WUHU21623XXSP,2013-04-28 10:32:00,
2013-04-28 06:37:00,39.0,30.7,30.39,NNW,337,0.0,0.0,72,0.00,,,0.00,WUHU21623XXSP,2013-04-28 10:37:00,
2013-04-28 06:42:00,39.4,31.4,30.39,NNW,337,0.0,0.0,73,0.00,,,0.00,WUHU21623XXSP,2013-04-28 10:42:00,
2013-04-28 06:47:00,39.0,31.0,30.40,NNW,337,0.0,0.0,73,0.00,,,0.00,WUHU21623XXSP,2013-04-28 10:47:00,
2013-04-28 06:52:00,39.0,31.0,30.40,NNW,337,0.0,0.0,73,0.00,,,0.00,WUHU21623XXSP,2013-04-28 10:52:00,
2013-04-28 06:57:00,39.4,31.4,30.40,NNW,337,0.0,0.0,73,0.00,,,0.00,WUHU21623XXSP,2013-04-28 10:57:00,
2013-04-28 07:02:00,39.4,31.4,30.40,NNW,337,0.0,0.0,73,0.00,,,0.00,WUHU21623XXSP,2013-04-28 11:02:00,
2013-04-28 07:07:00,39.7,31.7,30.40,NNW,337,0.0,0.0,73,0.00,,,0.00,WUHU21623XXSP,2013-04-28 11:07:00,
2013-04-28 07:12:00,39.9,31.9,30.41,NNW,337,0.0,0.0,73,0.00,,,0.00,WUHU21623XXSP,2013-04-28 11:12:00,
2013-04-28 07:17:00,40.5,32.1,30.41,NNW,337,0.0,0.0,72,0.00,,,0.00,WUHU21623XXSP,2013-04-28 11:17:00,
2013-04-28 07:22:00,41.4,32.7,30.41,NNW,337,0.0,0.0,71,0.00,,,0.00,WUHU21623XXSP,2013-04-28 11:22:00,
2013-04-28 07:27:00,42.3,32.9,30.41,NNW,337,0.0,0.0,69,0.00,,,0.00,WUHU21623XXSP,2013-04-28 11:27:00,
2013-04-28 07:32:00,43.0,33.2,30.41,NNW,337,0.0,0.0,68,0.00,,,0.00,WUHU21623XXSP,2013-04-28 11:32:00,
2013-04-28 07:37:00,42.8,32.6,30.41,NNW,337,0.0,0.0,67,0.00,,,0.00,WUHU21623XXSP,2013-04-28 11:37:00,
2013-04-28 07:42:00,42.6,32.8,30.41,NNW,337,0.0,0.0,68,0.00,,,0.00,WUHU21623XXSP,2013-04-28 11:42:00,
2013-04-28 07:47:00,42.6,33.2,30.41,NNW,337,0.0,0.0,69,0.00,,,0.00,WUHU21623XXSP,2013-04-28 11:47:00,
2013-04-28 07:52:00,43.2,33.7,30.41,NNW,337,0.0,0.0,69,0.00,,,0.00,WUHU21623XXSP,2013-04-28 11:52:00,
2013-04-28 07:57:00,44.2,34.3,30.41,NNW,337,0.0,0.0,68,0.00,,,0.00,WUHU21623XXSP,2013-04-28 11:57:00,
2013-04-28 08:02:00,45.0,34.6,30.41,NNW,337,0.0,0.0,67,0.00,,,0.00,WUHU21623XXSP,2013-04-28 12:02:00,
2013-04-28 08:07:00,45.5,34.8,30.41,NNW,337,0.0,0.0,66,0.00,,,0.00,WUHU21623XXSP,2013-04-28 12:07:00,
2013-04-28 08:12:00,46.2,35.1,30.41,NNW,337,0.0,0.0,65,0.00,,,0.00,WUHU21623XXSP,2013-04-28 12:12:00,
2013-04-28 08:17:00,46.6,35.4,30.41,NNW,337,0.0,0.0,65,0.00,,,0.00,WUHU21623XXSP,2013-04-28 12:17:00,
2013-04-28 08:22:00,47.7,35.7,30.41,NNW,337,0.0,0.0,63,0.00,,,0.00,WUHU21623XXSP,2013-04-28 12:22:00,
2013-04-28 08:27:00,48.2,35.8,30.41,NNW,337,0.0,0.0,62,0.00,,,0.00,WUHU21623XXSP,2013-04-28 12:27:00,
2013-04-28 08:32:00,48.9,35.7,30.42,WSW,247,0.0,0.0,60,0.00,,,0.00,WUHU21623XXSP,2013-04-28 12:32:00,
2013-04-28 08:37:00,49.3,35.1,30.42,SW,225,0.0,0.0,58,0.00,,,0.00,WUHU21623XXSP,2013-04-28 12:37:00,
2013-04-28 08:42:00,49.8,36.0,30.42,SW,225,0.0,0.0,59,0.00,,,0.00,WUHU21623XXSP,2013-04-28 12:42:00,
2013-04-28 08:47:00,50.2,35.0,30.42,SW,225,0.0,0.0,56,0.00,,,0.00,WUHU21623XXSP,2013-04-28 12:47:00,
2013-04-28 08:52:00,50.7,35.1,30.42,SW,225,0.0,1.3,55,0.00,,,0.00,WUHU21623XXSP,2013-04-28 12:52:00,
2013-04-28 08:57:00,51.1,35.4,30.42,SSW,202,0.0,1.3,55,0.00,,,0.00,WUHU21623XXSP,2013-04-28 12:57:00,
2013-04-28 09:02:00,51.1,35.0,30.42,East,90,0.0,4.0,54,0.00,,,0.00,WUHU21623XXSP,2013-04-28 13:02:00,
2013-04-28 09:07:00,51.6,35.9,30.42,East,90,0.0,4.0,55,0.00,,,0.00,WUHU21623XXSP,2013-04-28 13:07:00,
2013-04-28 09:12:00,51.8,35.6,30.42,ENE,67,0.0,3.1,54,0.00,,,0.00,WUHU21623XXSP,2013-04-28 13:12:00,
2013-04-28 09:17:00,52.0,35.3,30.42,ESE,112,0.0,3.1,53,0.00,,,0.00,WUHU21623XXSP,2013-04-28 13:17:00,
2013-04-28 09:22:00,52.3,35.6,30.42,South,180,3.6,5.6,53,0.00,,,0.00,WUHU21623XXSP,2013-04-28 13:22:00,
2013-04-28 09:27:00,52.9,35.7,30.42,South,180,0.0,5.6,52,0.00,,,0.00,WUHU21623XXSP,2013-04-28 13:27:00,
2013-04-28 09:32:00,53.6,36.4,30.42,South,180,0.0,3.6,52,0.00,,,0.00,WUHU21623XXSP,2013-04-28 13:32:00,
2013-04-28 09:37:00,54.1,36.4,30.41,South,180,0.0,0.0,51,0.00,,,0.00,WUHU21623XXSP,2013-04-28 13:37:00,
2013-04-28 09:42:00,54.7,36.4,30.42,South,180,0.0,0.0,50,0.00,,,0.00,WUHU21623XXSP,2013-04-28 13:42:00,
2013-04-28 09:47:00,55.0,36.2,30.41,SSE,157,0.0,0.0,49,0.00,,,0.00,WUHU21623XXSP,2013-04-28 13:47:00,
2013-04-28 09:52:00,54.7,35.3,30.41,SSE,157,0.0,0.0,48,0.00,,,0.00,WUHU21623XXSP,2013-04-28 13:52:00,
2013-04-28 09:57:00,55.6,36.6,30.41,SSE,157,0.0,0.0,49,0.00,,,0.00,WUHU21623XXSP,2013-04-28 13:57:00,
2013-04-28 10:02:00,56.1,37.2,30.41,NE,45,0.0,1.8,49,0.00,,,0.00,WUHU21623XXSP,2013-04-28 14:02:00,
2013-04-28 10:07:00,56.5,37.0,30.41,WNW,292,0.0,2.0,48,0.00,,,0.00,WUHU21623XXSP,2013-04-28 14:07:00,
2013-04-28 10:12:00,56.8,37.3,30.41,West,270,0.0,2.0,48,0.00,,,0.00,WUHU21623XXSP,2013-04-28 14:12:00,
2013-04-28 10:17:00,57.0,36.9,30.41,ENE,67,0.0,3.4,47,0.00,,,0.00,WUHU21623XXSP,2013-04-28 14:17:00,
2013-04-28 10:22:00,57.9,36.6,30.41,SSE,157,0.0,3.4,45,0.00,,,0.00,WUHU21623XXSP,2013-04-28 14:22:00,
2013-04-28 10:27:00,58.6,37.3,30.41,ESE,112,0.0,3.4,45,0.00,,,0.00,WUHU21623XXSP,2013-04-28 14:27:00,
2013-04-28 10:32:00,58.8,37.4,30.41,NE,45,0.0,3.4,44,0.00,,,0.00,WUHU21623XXSP,2013-04-28 14:32:00,
2013-04-28 10:37:00,58.8,36.8,30.41,NNE,22,1.8,6.0,44,0.00,,,0.00,WUHU21623XXSP,2013-04-28 14:37:00,
2013-04-28 10:42:00,58.8,36.3,30.40,SSE,157,0.0,6.0,43,0.00,,,0.00,WUHU21623XXSP,2013-04-28 14:42:00,
2013-04-28 10:47:00,58.8,36.8,30.40,ESE,112,0.0,6.3,44,0.00,,,0.00,WUHU21623XXSP,2013-04-28 14:47:00,
2013-04-28 10:52:00,59.9,37.2,30.40,NE,45,0.0,6.3,43,0.00,,,0.00,WUHU21623XXSP,2013-04-28 14:52:00,
2013-04-28 10:57:00,60.4,37.1,30.40,NE,45,0.0,5.8,42,0.00,,,0.00,WUHU21623XXSP,2013-04-28 14:57:00,
2013-04-28 11:02:00,61.0,37.6,30.40,NE,45,3.8,3.8,42,0.00,,,0.00,WUHU21623XXSP,2013-04-28 15:02:00,
2013-04-28 11:07:00,61.0,37.1,30.40,SW,225,1.8,5.8,41,0.00,,,0.00,WUHU21623XXSP,2013-04-28 15:07:00,
2013-04-28 11:12:00,61.0,37.1,30.40,WNW,292,0.0,5.8,41,0.00,,,0.00,WUHU21623XXSP,2013-04-28 15:12:00,
2013-04-28 11:17:00,61.9,37.1,30.40,ESE,112,0.0,3.4,40,0.00,,,0.00,WUHU21623XXSP,2013-04-28 15:17:00,
2013-04-28 11:22:00,62.2,36.9,30.40,ENE,67,0.0,1.1,39,0.00,,,0.00,WUHU21623XXSP,2013-04-28 15:22:00,
2013-04-28 11:27:00,62.4,38.4,30.40,ENE,67,0.0,2.2,41,0.00,,,0.00,WUHU21623XXSP,2013-04-28 15:27:00,
2013-04-28 11:32:00,62.8,37.4,30.40,East,90,0.9,4.5,39,0.00,,,0.00,WUHU21623XXSP,2013-04-28 15:32:00,
2013-04-28 11:37:00,63.0,37.5,30.39,ENE,67,0.0,8.1,39,0.00,,,0.00,WUHU21623XXSP,2013-04-28 15:37:00,
2013-04-28 11:42:00,63.5,36.6,30.39,ENE,67,0.0,8.1,37,0.00,,,0.00,WUHU21623XXSP,2013-04-28 15:42:00,
2013-04-28 11:47:00,63.3,37.1,30.39,North,0,0.0,5.1,38,0.00,,,0.00,WUHU21623XXSP,2013-04-28 15:47:00,
2013-04-28 11:52:00,63.7,36.8,30.39,NE,45,0.0,4.9,37,0.00,,,0.00,WUHU21623XXSP,2013-04-28 15:52:00,
2013-04-28 11:57:00,63.7,36.8,30.39,ENE,67,0.0,4.9,37,0.00,,,0.00,WUHU21623XXSP,2013-04-28 15:57:00,
2013-04-28 12:02:00,64.6,36.8,30.38,SSE,157,0.0,4.5,36,0.00,,,0.00,WUHU21623XXSP,2013-04-28 16:02:00,
2013-04-28 12:07:00,64.6,36.8,30.38,NNE,22,2.9,7.6,36,0.00,,,0.00,WUHU21623XXSP,2013-04-28 16:07:00,
2013-04-28 12:12:00,64.6,36.1,30.38,ESE,112,0.0,7.6,35,0.00,,,0.00,WUHU21623XXSP,2013-04-28 16:12:00,
2013-04-28 12:17:00,64.2,35.8,30.38,NE,45,0.0,4.9,35,0.00,,,0.00,WUHU21623XXSP,2013-04-28 16:17:00,
2013-04-28 12:22:00,64.9,37.2,30.38,NE,45,0.0,4.9,36,0.00,,,0.00,WUHU21623XXSP,2013-04-28 16:22:00,
2013-04-28 12:27:00,65.1,35.2,30.38,NW,315,0.0,5.4,33,0.00,,,0.00,WUHU21623XXSP,2013-04-28 16:27:00,
2013-04-28 12:32:00,65.8,36.5,30.37,ESE,112,0.0,5.4,34,0.00,,,0.00,WUHU21623XXSP,2013-04-28 16:32:00,
2013-04-28 12:37:00,66.0,36.0,30.37,SSW,202,0.0,4.9,33,0.00,,,0.00,WUHU21623XXSP,2013-04-28 16:37:00,
2013-04-28 12:42:00,66.0,36.7,30.37,SSE,157,7.4,8.1,34,0.00,,,0.00,WUHU21623XXSP,2013-04-28 16:42:00,
2013-04-28 12:47:00,66.7,37.3,30.37,ENE,67,0.0,8.1,34,0.00,,,0.00,WUHU21623XXSP,2013-04-28 16:47:00,
2013-04-28 12:52:00,66.2,36.9,30.36,ESE,112,0.0,5.6,34,0.00,,,0.00,WUHU21623XXSP,2013-04-28 16:52:00,
2013-04-28 12:57:00,66.7,38.0,30.37,NW,315,0.0,7.2,35,0.00,,,0.00,WUHU21623XXSP,2013-04-28 16:57:00,
2013-04-28 13:02:00,66.9,38.2,30.37,ESE,112,1.6,7.2,35,0.00,,,0.00,WUHU21623XXSP,2013-04-28 17:02:00,
2013-04-28 13:07:00,66.6,37.9,30.36,ENE,67,0.0,6.9,35,0.00,,,0.00,WUHU21623XXSP,2013-04-28 17:07:00,
2013-04-28 13:12:00,67.8,38.2,30.36,SE,135,1.6,8.3,34,0.00,,,0.00,WUHU21623XXSP,2013-04-28 17:12:00,
2013-04-28 13:17:00,67.3,38.5,30.36,East,90,3.1,8.3,35,0.00,,,0.00,WUHU21623XXSP,2013-04-28 17:17:00,
2013-04-28 13:22:00,67.8,38.2,30.36,NE,45,5.1,5.8,34,0.00,,,0.00,WUHU21623XXSP,2013-04-28 17:22:00,
2013-04-28 13:27:00,67.6,38.8,30.36,NE,45,1.8,5.8,35,0.00,,,0.00,WUHU21623XXSP,2013-04-28 17:27:00,
2013-04-28 13:31:00,67.8,37.5,30.35,ENE,67,3.1,6.5,33,0.00,,,0.00,WUHU21623XXSP,2013-04-28 17:31:00,
2013-04-28 13:32:00,67.8,37.5,30.35,SSE,157,2.2,6.3,33,0.00,,,0.00,WUHU21623XXSP,2013-04-28 17:32:00,
2013-04-28 13:43:00,67.8,37.5,30.35,ENE,67,5.4,6.5,33,0.00,,,0.00,WUHU21623XXSP,2013-04-28 17:43:00,
2013-04-28 13:48:00,67.6,38.1,30.35,ENE,67,2.2,6.7,34,0.00,,,0.00,WUHU21623XXSP,2013-04-28 17:48:00,
2013-04-28 13:53:00,66.0,36.0,30.35,NNE,22,0.0,6.7,33,0.00,,,0.00,WUHU21623XXSP,2013-04-28 17:53:00,
2013-04-28 13:58:00,66.7,37.3,30.34,SE,135,0.0,2.9,34,0.00,,,0.00,WUHU21623XXSP,2013-04-28 17:58:00,
2013-04-28 14:03:00,68.2,37.8,30.34,SE,135,2.7,7.8,33,0.00,,,0.00,WUHU21623XXSP,2013-04-28 18:03:00,
2013-04-28 14:08:00,67.8,37.5,30.34,ESE,112,0.0,7.8,33,0.00,,,0.00,WUHU21623XXSP,2013-04-28 18:08:00,
2013-04-28 14:13:00,68.4,38.0,30.34,East,90,3.6,5.1,33,0.00,,,0.00,WUHU21623XXSP,2013-04-28 18:13:00,
2013-04-28 14:18:00,69.1,38.6,30.34,NE,45,7.4,9.2,33,0.00,,,0.00,WUHU21623XXSP,2013-04-28 18:18:00,
2013-04-28 14:23:00,68.5,38.9,30.34,SE,135,0.0,9.2,34,0.00,,,0.00,WUHU21623XXSP,2013-04-28 18:23:00,
2013-04-28 14:28:00,68.5,37.4,30.33,ENE,67,0.0,6.9,32,0.00,,,0.00,WUHU21623XXSP,2013-04-28 18:28:00,
2013-04-28 14:33:00,69.1,39.3,30.33,SE,135,1.6,8.1,34,0.00,,,0.00,WUHU21623XXSP,2013-04-28 18:33:00,
2013-04-28 14:38:00,69.1,37.9,30.33,ENE,67,0.0,8.1,32,0.00,,,0.00,WUHU21623XXSP,2013-04-28 18:38:00,
2013-04-28 14:43:00,69.4,38.2,30.33,SSE,157,2.5,7.8,32,0.00,,,0.00,WUHU21623XXSP,2013-04-28 18:43:00,
2013-04-28 14:48:00,69.4,37.5,30.33,WSW,247,0.0,11.9,31,0.00,,,0.00,WUHU21623XXSP,2013-04-28 18:48:00,
2013-04-28 14:53:00,69.4,37.5,30.32,SSW,202,2.5,11.9,31,0.00,,,0.00,WUHU21623XXSP,2013-04-28 18:53:00,
2013-04-28 14:58:00,70.5,39.9,30.32,ENE,67,0.0,8.1,33,0.00,,,0.00,WUHU21623XXSP,2013-04-28 18:58:00,
2013-04-28 15:03:00,71.8,39.5,30.32,South,180,0.0,9.6,31,0.00,,,0.00,WUHU21623XXSP,2013-04-28 19:03:00,
2013-04-28 15:08:00,71.2,38.3,30.31,NE,45,0.0,9.6,30,0.00,,,0.00,WUHU21623XXSP,2013-04-28 19:08:00,
2013-04-28 15:13:00,71.6,39.4,30.31,WSW,247,2.2,2.7,31,0.00,,,0.00,WUHU21623XXSP,2013-04-28 19:13:00,
2013-04-28 15:18:00,71.8,38.8,30.31,SSW,202,0.0,6.3,30,0.00,,,0.00,WUHU21623XXSP,2013-04-28 19:18:00,
2013-04-28 15:23:00,71.2,39.1,30.31,WSW,247,0.0,8.7,31,0.00,,,0.00,WUHU21623XXSP,2013-04-28 19:23:00,
2013-04-28 15:28:00,71.1,38.3,30.31,SSW,202,0.0,8.7,30,0.00,,,0.00,WUHU21623XXSP,2013-04-28 19:28:00,
2013-04-28 15:33:00,72.0,38.9,30.31,SW,225,2.2,7.4,30,0.00,,,0.00,WUHU21623XXSP,2013-04-28 19:33:00,
2013-04-28 15:38:00,72.7,40.3,30.30,WSW,247,0.0,7.4,31,0.00,,,0.00,WUHU21623XXSP,2013-04-28 19:38:00,
2013-04-28 15:43:00,72.3,40.0,30.30,WSW,247,0.9,6.9,31,0.00,,,0.00,WUHU21623XXSP,2013-04-28 19:43:00,
2013-04-28 15:48:00,71.8,37.8,30.30,WSW,247,0.0,6.9,29,0.00,,,0.00,WUHU21623XXSP,2013-04-28 19:48:00,
2013-04-28 15:53:00,70.9,38.0,30.30,WSW,247,0.0,10.1,30,0.00,,,0.00,WUHU21623XXSP,2013-04-28 19:53:00,
2013-04-28 15:58:00,71.2,38.3,30.30,WSW,247,0.0,10.1,30,0.00,,,0.00,WUHU21623XXSP,2013-04-28 19:58:00,
2013-04-28 16:03:00,71.2,40.5,30.30,WSW,247,0.0,5.4,33,0.00,,,0.00,WUHU21623XXSP,2013-04-28 20:03:00,
2013-04-28 16:08:00,70.9,38.0,30.29,WSW,247,0.0,5.4,30,0.00,,,0.00,WUHU21623XXSP,2013-04-28 20:08:00,
2013-04-28 16:13:00,70.0,38.7,30.29,WSW,247,0.0,6.7,32,0.00,,,0.00,WUHU21623XXSP,2013-04-28 20:13:00,
2013-04-28 16:18:00,70.7,38.6,30.29,WSW,247,0.0,6.7,31,0.00,,,0.00,WUHU21623XXSP,2013-04-28 20:18:00,
2013-04-28 16:23:00,71.8,39.5,30.29,WSW,247,1.3,4.5,31,0.00,,,0.00,WUHU21623XXSP,2013-04-28 20:23:00,
2013-04-28 16:28:00,71.2,39.1,30.29,WSW,247,0.0,8.7,31,0.00,,,0.00,WUHU21623XXSP,2013-04-28 20:28:00,
2013-04-28 16:33:00,71.2,39.8,30.29,WSW,247,0.0,8.7,32,0.00,,,0.00,WUHU21623XXSP,2013-04-28 20:33:00,
2013-04-28 16:38:00,70.3,38.3,30.29,WSW,247,0.0,5.4,31,0.00,,,0.00,WUHU21623XXSP,2013-04-28 20:38:00,
2013-04-28 16:43:00,70.5,38.4,30.29,WSW,247,1.6,6.9,31,0.00,,,0.00,WUHU21623XXSP,2013-04-28 20:43:00,
2013-04-28 16:48:00,70.5,38.4,30.29,WSW,247,0.7,6.9,31,0.00,,,0.00,WUHU21623XXSP,2013-04-28 20:48:00,
2013-04-28 16:53:00,70.7,38.8,30.29,WSW,247,0.0,4.0,31,0.00,,,0.00,WUHU21623XXSP,2013-04-28 20:53:00,
2013-04-28 16:58:00,70.2,38.8,30.29,WSW,247,2.7,6.5,32,0.00,,,0.00,WUHU21623XXSP,2013-04-28 20:58:00,
2013-04-28 17:03:00,69.8,38.5,30.28,NE,45,0.0,6.5,32,0.00,,,0.00,WUHU21623XXSP,2013-04-28 21:03:00,
2013-04-28 17:08:00,69.8,39.3,30.28,WSW,247,0.0,3.8,33,0.00,,,0.00,WUHU21623XXSP,2013-04-28 21:08:00,
2013-04-28 17:13:00,69.4,38.2,30.28,WSW,247,1.6,3.8,32,0.00,,,0.00,WUHU21623XXSP,2013-04-28 21:13:00,
2013-04-28 17:18:00,69.6,39.1,30.28,WSW,247,0.0,6.9,33,0.00,,,0.00,WUHU21623XXSP,2013-04-28 21:18:00,
2013-04-28 17:23:00,69.3,38.8,30.29,SSE,157,0.0,6.9,33,0.00,,,0.00,WUHU21623XXSP,2013-04-28 21:23:00,
2013-04-28 17:28:00,68.4,37.2,30.28,WSW,247,0.0,4.3,32,0.00,,,0.00,WUHU21623XXSP,2013-04-28 21:28:00,
2013-04-28 17:33:00,67.8,38.2,30.28,East,90,2.9,4.0,34,0.00,,,0.00,WUHU21623XXSP,2013-04-28 21:33:00,
2013-04-28 17:38:00,67.8,38.2,30.28,East,90,0.0,4.0,34,0.00,,,0.00,WUHU21623XXSP,2013-04-28 21:38:00,
2013-04-28 17:43:00,67.8,38.2,30.28,ESE,112,0.0,4.0,34,0.00,,,0.00,WUHU21623XXSP,2013-04-28 21:43:00,
2013-04-28 17:48:00,67.8,38.2,30.28,East,90,0.0,4.5,34,0.00,,,0.00,WUHU21623XXSP,2013-04-28 21:48:00,
2013-04-28 17:53:00,67.6,38.1,30.28,NE,45,0.0,4.5,34,0.00,,,0.00,WUHU21623XXSP,2013-04-28 21:53:00,
2013-04-28 17:58:00,67.1,37.6,30.28,NE,45,0.0,3.6,34,0.00,,,0.00,WUHU21623XXSP,2013-04-28 21:58:00,
2013-04-28 18:03:00,67.1,37.6,30.29,East,90,1.6,5.6,34,0.00,,,0.00,WUHU21623XXSP,2013-04-28 22:03:00,
2013-04-28 18:08:00,66.6,37.9,30.29,NE,45,0.0,5.6,35,0.00,,,0.00,WUHU21623XXSP,2013-04-28 22:08:00,
2013-04-28 18:13:00,66.2,38.3,30.29,ENE,67,0.0,5.4,36,0.00,,,0.00,WUHU21623XXSP,2013-04-28 22:13:00,
2013-04-28 18:18:00,65.8,38.0,30.29,ENE,67,0.0,6.9,36,0.00,,,0.00,WUHU21623XXSP,2013-04-28 22:18:00,
2013-04-28 18:23:00,65.5,38.4,30.29,ESE,112,0.0,6.9,37,0.00,,,0.00,WUHU21623XXSP,2013-04-28 22:23:00,
2013-04-28 18:28:00,65.5,37.7,30.29,East,90,0.0,7.4,36,0.00,,,0.00,WUHU21623XXSP,2013-04-28 22:28:00,
2013-04-28 18:33:00,64.9,37.9,30.28,East,90,0.0,7.4,37,0.00,,,0.00,WUHU21623XXSP,2013-04-28 22:33:00,
2013-04-28 18:38:00,64.4,38.1,30.28,NE,45,1.3,3.4,38,0.00,,,0.00,WUHU21623XXSP,2013-04-28 22:38:00,
2013-04-28 18:43:00,64.0,37.8,30.28,NNE,22,3.1,7.8,38,0.00,,,0.00,WUHU21623XXSP,2013-04-28 22:43:00,
2013-04-28 18:48:00,63.1,37.0,30.29,NE,45,0.0,7.8,38,0.00,,,0.00,WUHU21623XXSP,2013-04-28 22:48:00,
2013-04-28 18:53:00,62.6,37.2,30.29,East,90,0.0,6.5,39,0.00,,,0.00,WUHU21623XXSP,2013-04-28 22:53:00,
2013-04-28 18:58:00,62.2,36.9,30.28,ENE,67,4.3,6.7,39,0.00,,,0.00,WUHU21623XXSP,2013-04-28 22:58:00,
2013-04-28 19:03:00,61.5,37.0,30.29,NE,45,0.0,6.7,40,0.00,,,0.00,WUHU21623XXSP,2013-04-28 23:03:00,
2013-04-28 19:08:00,61.2,37.2,30.29,SSE,157,0.0,4.3,41,0.00,,,0.00,WUHU21623XXSP,2013-04-28 23:08:00,
2013-04-28 19:13:00,60.6,36.7,30.29,East,90,0.0,8.9,41,0.00,,,0.00,WUHU21623XXSP,2013-04-28 23:13:00,
2013-04-28 19:18:00,60.3,36.4,30.29,ESE,112,0.0,8.9,41,0.00,,,0.00,WUHU21623XXSP,2013-04-28 23:18:00,
2013-04-28 19:23:00,59.7,36.5,30.29,SE,135,0.0,4.5,42,0.00,,,0.00,WUHU21623XXSP,2013-04-28 23:23:00,
2013-04-28 19:28:00,59.4,36.8,30.30,North,0,0.0,7.4,43,0.00,,,0.00,WUHU21623XXSP,2013-04-28 23:28:00,
2013-04-28 19:33:00,58.8,36.3,30.30,North,0,0.0,7.4,43,0.00,,,0.00,WUHU21623XXSP,2013-04-28 23:33:00,
2013-04-28 19:38:00,58.6,36.7,30.30,ENE,67,0.0,6.5,44,0.00,,,0.00,WUHU21623XXSP,2013-04-28 23:38:00,
2013-04-28 19:43:00,58.3,37.5,30.30,ENE,67,2.7,6.5,46,0.00,,,0.00,WUHU21623XXSP,2013-04-28 23:43:00,
2013-04-28 19:48:00,57.9,36.6,30.30,NNE,22,3.1,3.1,45,0.00,,,0.00,WUHU21623XXSP,2013-04-28 23:48:00,
2013-04-28 19:53:00,57.7,36.4,30.30,NW,315,0.0,3.6,45,0.00,,,0.00,WUHU21623XXSP,2013-04-28 23:53:00,
2013-04-28 19:58:00,57.4,36.7,30.30,ENE,67,2.0,4.7,46,0.00,,,0.00,WUHU21623XXSP,2013-04-28 23:58:00,
2013-04-28 20:03:00,57.0,36.4,30.30,NNW,337,0.0,4.7,46,0.00,,,0.00,WUHU21623XXSP,2013-04-29 00:03:00,
2013-04-28 20:08:00,56.8,36.8,30.31,ENE,67,0.0,4.7,47,0.00,,,0.00,WUHU21623XXSP,2013-04-29 00:08:00,
2013-04-28 20:13:00,56.5,35.8,30.31,ENE,67,0.0,4.5,46,0.00,,,0.00,WUHU21623XXSP,2013-04-29 00:13:00,
2013-04-28 20:18:00,56.3,36.2,30.31,East,90,0.0,4.5,47,0.00,,,0.00,WUHU21623XXSP,2013-04-29 00:18:00,
2013-04-28 20:23:00,55.9,36.4,30.31,East,90,3.6,4.7,48,0.00,,,0.00,WUHU21623XXSP,2013-04-29 00:23:00,
2013-04-28 20:28:00,55.8,36.3,30.31,East,90,0.0,4.7,48,0.00,,,0.00,WUHU21623XXSP,2013-04-29 00:28:00,
2013-04-28 20:33:00,55.6,36.1,30.31,ENE,67,0.0,6.0,48,0.00,,,0.00,WUHU21623XXSP,2013-04-29 00:33:00,
2013-04-28 20:37:00,55.2,35.8,30.32,SE,135,0.0,7.6,48,0.00,,,0.00,WUHU21623XXSP,2013-04-29 00:37:00,
2013-04-28 20:42:00,55.0,36.2,30.32,ENE,67,0.0,7.6,49,0.00,,,0.00,WUHU21623XXSP,2013-04-29 00:42:00,
2013-04-28 20:47:00,54.9,36.0,30.32,NE,45,3.4,5.6,49,0.00,,,0.00,WUHU21623XXSP,2013-04-29 00:47:00,
2013-04-28 20:52:00,54.7,36.9,30.32,ESE,112,0.0,5.6,51,0.00,,,0.00,WUHU21623XXSP,2013-04-29 00:52:00,
2013-04-28 20:57:00,54.5,36.2,30.32,ENE,67,0.0,2.5,50,0.00,,,0.00,WUHU21623XXSP,2013-04-29 00:57:00,
2013-04-28 21:02:00,54.3,36.1,30.32,ENE,67,0.0,3.4,50,0.00,,,0.00,WUHU21623XXSP,2013-04-29 01:02:00,
2013-04-28 21:07:00,54.0,36.2,30.33,East,90,0.0,3.4,51,0.00,,,0.00,WUHU21623XXSP,2013-04-29 01:07:00,
2013-04-28 21:12:00,53.8,36.0,30.33,East,90,0.0,1.6,51,0.00,,,0.00,WUHU21623XXSP,2013-04-29 01:12:00,
2013-04-28 21:17:00,53.4,36.2,30.33,East,90,0.0,0.0,52,0.00,,,0.00,WUHU21623XXSP,2013-04-29 01:17:00,
2013-04-28 21:22:00,53.1,35.9,30.33,East,90,0.0,0.0,52,0.00,,,0.00,WUHU21623XXSP,2013-04-29 01:22:00,
2013-04-28 21:27:00,52.7,36.0,30.33,East,90,0.0,0.0,53,0.00,,,0.00,WUHU21623XXSP,2013-04-29 01:27:00,
2013-04-28 21:32:00,52.5,35.8,30.33,East,90,0.0,0.0,53,0.00,,,0.00,WUHU21623XXSP,2013-04-29 01:32:00,
2013-04-28 21:37:00,52.5,35.8,30.33,East,90,0.0,0.0,53,0.00,,,0.00,WUHU21623XXSP,2013-04-29 01:37:00,
2013-04-28 21:42:00,52.0,35.8,30.33,East,90,0.0,0.0,54,0.00,,,0.00,WUHU21623XXSP,2013-04-29 01:42:00,
2013-04-28 21:47:00,51.6,35.9,30.33,East,90,0.0,0.0,55,0.00,,,0.00,WUHU21623XXSP,2013-04-29 01:47:00,
2013-04-28 21:52:00,51.6,35.9,30.33,East,90,0.0,0.0,55,0.00,,,0.00,WUHU21623XXSP,2013-04-29 01:52:00,
2013-04-28 21:57:00,51.4,35.7,30.33,NE,45,0.0,0.0,55,0.00,,,0.00,WUHU21623XXSP,2013-04-29 01:57:00,
2013-04-28 22:02:00,51.1,35.4,30.33,NE,45,0.0,0.0,55,0.00,,,0.00,WUHU21623XXSP,2013-04-29 02:02:00,
2013-04-28 22:07:00,50.9,35.7,30.33,North,0,0.0,2.9,56,0.00,,,0.00,WUHU21623XXSP,2013-04-29 02:07:00,
2013-04-28 22:12:00,50.9,35.2,30.33,North,0,0.0,2.9,55,0.00,,,0.00,WUHU21623XXSP,2013-04-29 02:12:00,
2013-04-28 22:17:00,50.7,35.1,30.33,North,0,0.0,0.0,55,0.00,,,0.00,WUHU21623XXSP,2013-04-29 02:17:00,
2013-04-28 22:22:00,50.7,35.1,30.33,North,0,0.0,0.0,55,0.00,,,0.00,WUHU21623XXSP,2013-04-29 02:22:00,
2013-04-28 22:27:00,50.5,34.9,30.33,North,0,0.0,0.0,55,0.00,,,0.00,WUHU21623XXSP,2013-04-29 02:27:00,
2013-04-28 22:32:00,50.4,35.2,30.33,North,0,0.0,0.0,56,0.00,,,0.00,WUHU21623XXSP,2013-04-29 02:32:00,
2013-04-28 22:37:00,50.2,35.0,30.33,North,0,0.0,0.0,56,0.00,,,0.00,WUHU21623XXSP,2013-04-29 02:37:00,
2013-04-28 22:42:00,49.8,35.1,30.33,North,0,0.0,0.0,57,0.00,,,0.00,WUHU21623XXSP,2013-04-29 02:42:00,
2013-04-28 22:47:00,49.8,35.1,30.33,North,0,0.0,0.0,57,0.00,,,0.00,WUHU21623XXSP,2013-04-29 02:47:00,
2013-04-28 22:52:00,49.6,35.0,30.33,North,0,0.0,0.0,57,0.00,,,0.00,WUHU21623XXSP,2013-04-29 02:52:00,
2013-04-28 22:57:00,49.3,34.6,30.33,North,0,0.0,0.0,57,0.00,,,0.00,WUHU21623XXSP,2013-04-29 02:57:00,
2013-04-28 23:02:00,48.9,35.2,30.33,North,0,0.0,0.0,59,0.00,,,0.00,WUHU21623XXSP,2013-04-29 03:02:00,
2013-04-28 23:07:00,49.1,35.9,30.33,North,0,0.0,0.0,60,0.00,,,0.00,WUHU21623XXSP,2013-04-29 03:07:00,
2013-04-28 23:12:00,48.7,35.5,30.33,North,0,0.0,0.0,60,0.00,,,0.00,WUHU21623XXSP,2013-04-29 03:12:00,
2013-04-28 23:17:00,48.6,34.9,30.33,North,0,0.0,0.0,59,0.00,,,0.00,WUHU21623XXSP,2013-04-29 03:17:00,
2013-04-28 23:22:00,48.4,35.2,30.33,North,0,0.0,0.0,60,0.00,,,0.00,WUHU21623XXSP,2013-04-29 03:22:00,
2013-04-28 23:27:00,48.2,35.1,30.33,North,0,0.0,0.0,60,0.00,,,0.00,WUHU21623XXSP,2013-04-29 03:27:00,
2013-04-28 23:32:00,48.0,35.3,30.33,North,0,0.0,0.0,61,0.00,,,0.00,WUHU21623XXSP,2013-04-29 03:32:00,
2013-04-28 23:37:00,48.0,35.3,30.34,North,0,0.0,0.0,61,0.00,,,0.00,WUHU21623XXSP,2013-04-29 03:37:00,
2013-04-28 23:42:00,47.8,35.5,30.33,North,0,0.0,0.0,62,0.00,,,0.00,WUHU21623XXSP,2013-04-29 03:42:00,
2013-04-28 23:47:00,48.0,35.6,30.33,North,0,0.0,0.0,62,0.00,,,0.00,WUHU21623XXSP,2013-04-29 03:47:00,
2013-04-28 23:52:00,47.7,35.3,30.34,North,0,0.0,0.0,62,0.00,,,0.00,WUHU21623XXSP,2013-04-29 03:52:00,
2013-04-28 23:57:00,47.5,35.5,30.34,North,0,0.0,0.0,63,0.00,,,0.00,WUHU21623XXSP,2013-04-29 03:57:00,